TimeCDT,TemperatureF,Dew PointF,Humidity,Sea Level PressureIn,VisibilityMPH,Wind Direction,Wind SpeedMPH,Gust SpeedMPH,PrecipitationIn,Events,Conditions,WindDirDegrees,DateUTC
12:53 AM,73.0,70.0,90,30.17,10.0,Calm,Calm,-,N/A,,Clear,0,2013-07-18 05:53:00
1:53 AM,72.0,69.1,91,30.15,10.0,Calm,Calm,-,N/A,,Clear,0,2013-07-18 06:53:00
2:53 AM,71.1,69.1,93,30.13,10.0,Calm,Calm,-,N/A,,Clear,0,2013-07-18 07:53:00
3:53 AM,71.1,69.1,93,30.12,10.0,Calm,Calm,-,N/A,,Clear,0,2013-07-18 08:53:00
4:53 AM,71.1,68.0,90,30.12,10.0,Calm,Calm,-,N/A,,Clear,0,2013-07-18 09:53:00
5:53 AM,70.0,68.0,93,30.13,10.0,Calm,Calm,-,N/A,,Clear,0,2013-07-18 10:53:00
6:53 AM,71.1,68.0,90,30.13,10.0,Calm,Calm,-,N/A,,Clear,0,2013-07-18 11:53:00
7:53 AM,73.9,71.1,91,30.14,10.0,Calm,Calm,-,N/A,,Clear,0,2013-07-18 12:53:00
8:53 AM,82.9,71.1,67,30.15,10.0,Calm,Calm,-,N/A,,Clear,0,2013-07-18 13:53:00
9:53 AM,86.0,72.0,63,30.16,10.0,Calm,Calm,-,N/A,,Clear,0,2013-07-18 14:53:00
10:53 AM,88.0,72.0,59,30.15,10.0,Variable,4.6,-,N/A,,Clear,0,2013-07-18 15:53:00
11:53 AM,91.0,70.0,50,30.13,10.0,Calm,Calm,-,N/A,,Clear,0,2013-07-18 16:53:00
12:53 PM,93.9,70.0,46,30.11,10.0,Calm,Calm,-,N/A,,Clear,0,2013-07-18 17:53:00
1:53 PM,95.0,69.1,43,30.08,10.0,Variable,3.5,-,N/A,,Mostly Cloudy,0,2013-07-18 18:53:00
2:21 PM,89.6,69.8,52,30.07,10.0,SSE,10.4,-,N/A,Thunderstorm,Mostly Cloudy,160,2013-07-18 19:21:00
2:36 PM,89.6,69.8,52,30.07,10.0,SE,10.4,21.9,N/A,,Mostly Cloudy,140,2013-07-18 19:36:00
2:48 PM,89.6,69.8,52,30.06,10.0,SSW,5.8,-,N/A,Thunderstorm,Thunderstorm,200,2013-07-18 19:48:00
2:53 PM,89.1,69.1,52,30.05,10.0,South,5.8,-,N/A,Thunderstorm,Thunderstorm,190,2013-07-18 19:53:00
3:53 PM,84.0,66.9,56,30.03,10.0,WNW,5.8,16.1,N/A,Thunderstorm,Partly Cloudy,300,2013-07-18 20:53:00
4:14 PM,87.8,68.0,52,30.03,10.0,NW,6.9,-,N/A,,Clear,310,2013-07-18 21:14:00
4:42 PM,82.4,73.4,74,30.04,9.0,Calm,Calm,-,0.02,Rain-Thunderstorm,Light Thunderstorms and Rain,0,2013-07-18 21:42:00
4:53 PM,80.1,72.0,76,30.04,5.0,ENE,13.8,20.7,0.07,Rain-Thunderstorm,Thunderstorms and Rain,60,2013-07-18 21:53:00
4:55 PM,78.8,69.8,74,30.05,1.5,NNE,23.0,29.9,0.12,Rain-Thunderstorm,Thunderstorms and Rain,30,2013-07-18 21:55:00
5:05 PM,73.4,66.2,78,30.03,0.8,North,10.4,23.0,0.38,Rain-Thunderstorm,Heavy Thunderstorms and Rain,350,2013-07-18 22:05:00
5:11 PM,73.4,68.0,83,30.03,2.0,North,5.8,-,0.43,Rain,Heavy Rain,350,2013-07-18 22:11:00
5:19 PM,73.4,69.8,88,30.03,10.0,North,8.1,-,0.43,Rain,Light Rain,350,2013-07-18 22:19:00
5:53 PM,75.9,72.0,87,30.04,10.0,Calm,Calm,-,0.43,,Scattered Clouds,0,2013-07-18 22:53:00
6:09 PM,77.0,71.6,83,30.06,10.0,South,3.5,-,0.00,Rain-Thunderstorm,Light Rain,180,2013-07-18 23:09:00
6:30 PM,77.0,71.6,83,30.07,10.0,SSW,4.6,-,0.00,Rain,Light Rain,200,2013-07-18 23:30:00
6:53 PM,77.0,72.0,84,30.07,10.0,Variable,3.5,-,0.00,,Partly Cloudy,0,2013-07-18 23:53:00
7:53 PM,75.9,73.0,91,30.05,10.0,Calm,Calm,-,N/A,,Mostly Cloudy,0,2013-07-19 00:53:00
8:53 PM,75.0,71.1,87,30.10,10.0,Variable,3.5,-,N/A,,Partly Cloudy,0,2013-07-19 01:53:00
9:53 PM,75.0,70.0,84,30.10,10.0,Calm,Calm,-,N/A,,Mostly Cloudy,0,2013-07-19 02:53:00
10:53 PM,73.9,71.1,91,30.08,10.0,Calm,Calm,-,N/A,,Mostly Cloudy,0,2013-07-19 03:53:00
11:53 PM,73.0,71.1,93,30.07,10.0,Calm,Calm,-,N/A,,Scattered Clouds,0,2013-07-19 04:53:00